Location: Biltmore Gardens
(41.6070°N, 83.4666°W)
Time: 10:41:38
(UTC+00:00)

Cosmos 2344 - Pass Details

Date: 24 October 2020
Orbit: 1246 x 2997 km, 63.3° (Epoch: 25 November)

Event Time Altitude Azimuth Distance (km) Brightness Sun altitude
Exits shadow 09:45:59 48° 266° (W) 1,592 3.6 -25.1°
Maximum altitude 09:47:44 58° 312° (NW) 1,439 3.6 -24.7°
Drops below altitude 10° 09:55:34 10° 31° (NNE) 3,457 6.3 -23.3°
Sets 09:58:44 0° 36° (NE) 4,586 7.1 -22.7°
